Time,TemperatureF,DewpointF,PressureIn,WindDirection,WindDirectionDegrees,WindSpeedMPH,WindSpeedGustMPH,Humidity,HourlyPrecipIn,Conditions,Clouds,dailyrainin,SoftwareType,DateUTC
2013-07-09 00:01:00,71.8,41.9,29.68,WSW,253,0.0,0.0,34,0.00,,---,0.00,VWS V13.01,2013-07-09 04:01:00,
2013-07-09 00:02:00,71.8,41.9,29.68,WSW,253,0.0,0.0,34,0.00,,---,0.00,VWS V13.01,2013-07-09 04:02:00,
2013-07-09 00:03:00,71.8,41.9,29.68,WSW,253,0.0,0.0,34,0.00,,---,0.00,VWS V13.01,2013-07-09 04:03:00,
2013-07-09 00:08:00,71.8,41.9,29.68,WSW,253,0.0,0.0,34,0.00,,---,0.00,VWS V13.01,2013-07-09 04:08:00,
2013-07-09 00:13:00,71.8,41.9,29.68,WSW,253,0.0,0.0,34,0.00,,---,0.00,VWS V13.01,2013-07-09 04:13:00,
2013-07-09 00:19:00,71.8,41.9,29.68,WSW,253,0.0,0.0,34,0.00,,---,0.00,VWS V13.01,2013-07-09 04:19:00,
2013-07-09 00:24:00,71.8,41.9,29.68,WSW,253,0.0,0.0,34,0.00,,---,0.00,VWS V13.01,2013-07-09 04:24:00,
2013-07-09 00:29:00,71.8,41.9,29.68,WSW,253,0.0,0.0,34,0.00,,---,0.00,VWS V13.01,2013-07-09 04:29:00,
2013-07-09 00:34:00,71.8,41.9,29.68,WSW,253,0.0,0.0,34,0.00,,---,0.00,VWS V13.01,2013-07-09 04:34:00,
2013-07-09 00:39:00,71.8,41.9,29.68,WSW,253,0.0,0.0,34,0.00,,---,0.00,VWS V13.01,2013-07-09 04:39:00,
2013-07-09 00:44:00,71.8,41.9,29.68,WSW,253,0.0,0.0,34,0.00,,---,0.00,VWS V13.01,2013-07-09 04:44:00,
2013-07-09 00:49:00,71.8,41.9,29.68,WSW,253,0.0,0.0,34,0.00,,---,0.00,VWS V13.01,2013-07-09 04:49:00,
2013-07-09 00:54:00,71.8,41.9,29.68,WSW,253,0.0,0.0,34,0.00,,---,0.00,VWS V13.01,2013-07-09 04:54:00,
2013-07-09 00:59:00,71.8,41.9,29.68,WSW,253,0.0,0.0,34,0.00,,---,0.00,VWS V13.01,2013-07-09 04:59:00,
2013-07-09 01:04:00,71.8,41.9,29.68,WSW,253,0.0,0.0,34,0.00,,---,0.00,VWS V13.01,2013-07-09 05:04:00,
2013-07-09 01:09:00,71.8,41.9,29.68,WSW,253,0.0,0.0,34,0.00,,---,0.00,VWS V13.01,2013-07-09 05:09:00,
2013-07-09 01:15:00,71.1,42.0,29.68,WSW,253,0.0,0.0,35,0.00,,---,0.00,VWS V13.01,2013-07-09 05:15:00,
2013-07-09 01:20:00,71.1,42.0,29.68,WSW,253,0.0,0.0,35,0.00,,---,0.00,VWS V13.01,2013-07-09 05:20:00,
2013-07-09 01:25:00,70.9,41.9,29.68,WSW,253,0.0,0.0,35,0.00,,---,0.00,VWS V13.01,2013-07-09 05:25:00,
2013-07-09 01:30:00,70.9,41.9,29.68,WSW,253,0.0,0.0,35,0.00,,---,0.00,VWS V13.01,2013-07-09 05:30:00,
2013-07-09 01:35:00,70.9,41.9,29.68,WSW,253,0.0,0.0,35,0.00,,---,0.00,VWS V13.01,2013-07-09 05:35:00,
2013-07-09 01:40:00,70.7,41.0,29.68,WSW,253,0.0,0.0,34,0.00,,---,0.00,VWS V13.01,2013-07-09 05:40:00,
2013-07-09 01:45:00,70.7,41.0,29.68,WSW,253,0.0,0.0,34,0.00,,---,0.00,VWS V13.01,2013-07-09 05:45:00,
2013-07-09 01:50:00,70.5,40.8,29.68,WSW,253,0.0,0.0,34,0.00,,---,0.00,VWS V13.01,2013-07-09 05:50:00,
2013-07-09 01:55:00,70.3,40.7,29.68,WSW,253,0.0,0.0,34,0.00,,---,0.00,VWS V13.01,2013-07-09 05:55:00,
2013-07-09 02:00:00,70.3,40.7,29.68,WSW,253,0.0,0.0,34,0.00,,---,0.00,VWS V13.01,2013-07-09 06:00:00,
2013-07-09 02:06:00,70.3,40.7,29.68,WSW,253,0.0,0.0,34,0.00,,---,0.00,VWS V13.01,2013-07-09 06:06:00,
2013-07-09 02:11:00,70.2,41.3,29.68,WSW,253,0.0,0.0,35,0.00,,---,0.00,VWS V13.01,2013-07-09 06:11:00,
2013-07-09 02:16:00,70.2,41.3,29.68,WSW,253,0.0,0.0,35,0.00,,---,0.00,VWS V13.01,2013-07-09 06:16:00,
2013-07-09 02:21:00,70.0,41.1,29.68,WSW,253,0.0,0.0,35,0.00,,---,0.00,VWS V13.01,2013-07-09 06:21:00,
2013-07-09 02:26:00,70.0,41.1,29.68,WSW,253,0.0,0.0,35,0.00,,---,0.00,VWS V13.01,2013-07-09 06:26:00,
2013-07-09 02:31:00,70.0,41.1,29.68,WSW,253,0.0,0.0,35,0.00,,---,0.00,VWS V13.01,2013-07-09 06:31:00,
2013-07-09 02:36:00,69.8,41.7,29.68,WSW,253,0.0,0.0,36,0.00,,---,0.00,VWS V13.01,2013-07-09 06:36:00,
2013-07-09 02:41:00,69.6,41.5,29.68,WSW,253,0.0,0.0,36,0.00,,---,0.00,VWS V13.01,2013-07-09 06:41:00,
2013-07-09 02:46:00,69.6,41.5,29.68,WSW,253,0.0,0.0,36,0.00,,---,0.00,VWS V13.01,2013-07-09 06:46:00,
2013-07-09 02:51:00,69.6,41.5,29.68,WSW,253,0.0,0.0,36,0.00,,---,0.00,VWS V13.01,2013-07-09 06:51:00,
2013-07-09 02:57:00,69.6,41.5,29.68,WSW,253,0.0,0.0,36,0.00,,---,0.00,VWS V13.01,2013-07-09 06:57:00,
2013-07-09 03:02:00,69.6,41.5,29.68,WSW,253,0.0,0.0,36,0.00,,---,0.00,VWS V13.01,2013-07-09 07:02:00,
2013-07-09 03:07:00,69.4,41.3,29.68,WSW,253,0.0,0.0,36,0.00,,---,0.00,VWS V13.01,2013-07-09 07:07:00,
2013-07-09 03:12:00,69.4,41.3,29.68,WSW,253,0.0,0.0,36,0.00,,---,0.00,VWS V13.01,2013-07-09 07:12:00,
2013-07-09 03:17:00,69.3,41.2,29.68,WSW,253,0.0,0.0,36,0.00,,---,0.00,VWS V13.01,2013-07-09 07:17:00,
2013-07-09 03:22:00,69.3,41.2,29.68,WSW,253,0.0,0.0,36,0.00,,---,0.00,VWS V13.01,2013-07-09 07:22:00,
2013-07-09 03:27:00,69.3,41.2,29.68,WSW,253,0.0,0.0,36,0.00,,---,0.00,VWS V13.01,2013-07-09 07:27:00,
2013-07-09 03:32:00,69.1,41.0,29.68,WSW,253,0.0,0.0,36,0.00,,---,0.00,VWS V13.01,2013-07-09 07:32:00,
2013-07-09 03:37:00,69.1,41.0,29.68,WSW,253,0.0,0.0,36,0.00,,---,0.00,VWS V13.01,2013-07-09 07:37:00,
2013-07-09 03:42:00,68.9,40.9,29.68,WSW,253,0.0,0.0,36,0.00,,---,0.00,VWS V13.01,2013-07-09 07:42:00,
2013-07-09 03:47:00,68.9,40.9,29.68,WSW,253,0.0,0.0,36,0.00,,---,0.00,VWS V13.01,2013-07-09 07:47:00,
2013-07-09 03:53:00,68.9,40.9,29.68,WSW,253,0.0,0.0,36,0.00,,---,0.00,VWS V13.01,2013-07-09 07:53:00,
2013-07-09 03:58:00,68.7,40.7,29.68,WSW,253,0.0,0.0,36,0.00,,---,0.00,VWS V13.01,2013-07-09 07:58:00,
2013-07-09 04:03:00,68.7,40.7,29.68,WSW,253,0.0,0.0,36,0.00,,---,0.00,VWS V13.01,2013-07-09 08:03:00,
2013-07-09 04:08:00,68.5,40.5,29.68,WSW,253,0.0,0.0,36,0.00,,---,0.00,VWS V13.01,2013-07-09 08:08:00,
2013-07-09 04:13:00,68.5,40.5,29.68,WSW,253,0.0,0.0,36,0.00,,---,0.00,VWS V13.01,2013-07-09 08:13:00,
2013-07-09 04:18:00,68.5,40.5,29.68,WSW,253,0.0,0.0,36,0.00,,---,0.00,VWS V13.01,2013-07-09 08:18:00,
2013-07-09 04:23:00,68.4,40.4,29.68,WSW,253,0.0,0.0,36,0.00,,---,0.00,VWS V13.01,2013-07-09 08:23:00,
2013-07-09 04:28:00,68.4,40.4,29.68,WSW,253,0.0,0.0,36,0.00,,---,0.00,VWS V13.01,2013-07-09 08:28:00,
2013-07-09 04:34:00,68.2,40.2,29.68,WSW,253,0.0,0.0,36,0.00,,---,0.00,VWS V13.01,2013-07-09 08:34:00,
2013-07-09 04:39:00,68.0,40.1,29.68,WSW,253,0.0,0.0,36,0.00,,---,0.00,VWS V13.01,2013-07-09 08:39:00,
2013-07-09 04:44:00,68.0,40.1,29.68,WSW,253,0.0,0.0,36,0.00,,---,0.00,VWS V13.01,2013-07-09 08:44:00,
2013-07-09 04:49:00,68.0,40.1,29.68,WSW,253,0.0,0.0,36,0.00,,---,0.00,VWS V13.01,2013-07-09 08:49:00,
2013-07-09 04:54:00,68.0,40.1,29.68,WSW,253,0.0,0.0,36,0.00,,---,0.00,VWS V13.01,2013-07-09 08:54:00,
2013-07-09 04:59:00,67.8,39.9,29.68,WSW,253,0.0,0.0,36,0.00,,---,0.00,VWS V13.01,2013-07-09 08:59:00,
2013-07-09 05:04:00,67.8,39.9,29.68,WSW,253,0.0,0.0,36,0.00,,---,0.00,VWS V13.01,2013-07-09 09:04:00,
2013-07-09 05:09:00,67.6,39.8,29.68,WSW,253,0.0,0.0,36,0.00,,---,0.00,VWS V13.01,2013-07-09 09:09:00,
2013-07-09 05:14:00,67.8,39.9,29.71,WSW,253,0.0,0.0,36,0.00,,---,0.00,VWS V13.01,2013-07-09 09:14:00,
2013-07-09 05:19:00,67.8,39.9,29.71,WSW,253,0.0,0.0,36,0.00,,---,0.00,VWS V13.01,2013-07-09 09:19:00,
2013-07-09 05:29:00,67.6,39.8,29.71,WSW,253,0.0,0.0,36,0.00,,---,0.00,VWS V13.01,2013-07-09 09:29:00,
2013-07-09 05:34:00,67.6,39.8,29.71,WSW,253,0.0,0.0,36,0.00,,---,0.00,VWS V13.01,2013-07-09 09:34:00,
2013-07-09 05:40:00,67.5,39.6,29.71,WSW,253,0.0,0.0,36,0.00,,---,0.00,VWS V13.01,2013-07-09 09:40:00,
2013-07-09 05:45:00,67.3,39.4,29.71,WSW,253,0.0,0.0,36,0.00,,---,0.00,VWS V13.01,2013-07-09 09:45:00,
2013-07-09 05:50:00,67.3,40.1,29.71,WSW,253,0.0,0.0,37,0.00,,---,0.00,VWS V13.01,2013-07-09 09:50:00,
2013-07-09 05:55:00,67.5,40.3,29.71,WSW,253,0.0,0.0,37,0.00,,---,0.00,VWS V13.01,2013-07-09 09:55:00,
2013-07-09 06:00:00,67.5,40.3,29.71,WSW,253,0.0,0.0,37,0.00,,---,0.00,VWS V13.01,2013-07-09 10:00:00,
2013-07-09 06:05:00,67.5,40.3,29.71,WSW,253,0.0,0.0,37,0.00,,---,0.00,VWS V13.01,2013-07-09 10:05:00,
2013-07-09 06:10:00,67.5,40.3,29.71,WSW,253,0.0,0.0,37,0.00,,---,0.00,VWS V13.01,2013-07-09 10:10:00,
2013-07-09 06:15:00,67.5,40.3,29.71,WSW,253,0.0,0.0,37,0.00,,---,0.00,VWS V13.01,2013-07-09 10:15:00,
2013-07-09 06:20:00,67.5,40.3,29.71,WSW,253,0.0,0.0,37,0.00,,---,0.00,VWS V13.01,2013-07-09 10:20:00,
2013-07-09 06:25:00,67.6,40.5,29.71,WSW,253,0.0,0.0,37,0.00,,---,0.00,VWS V13.01,2013-07-09 10:25:00,
2013-07-09 06:30:00,67.6,40.5,29.71,WSW,253,0.0,0.0,37,0.00,,---,0.00,VWS V13.01,2013-07-09 10:30:00,
2013-07-09 06:36:00,67.8,40.6,29.71,WSW,253,0.0,0.0,37,0.00,,---,0.00,VWS V13.01,2013-07-09 10:36:00,
2013-07-09 06:41:00,68.0,40.8,29.71,WSW,253,0.0,0.0,37,0.00,,---,0.00,VWS V13.01,2013-07-09 10:41:00,
2013-07-09 06:46:00,68.0,40.8,29.71,WSW,253,0.0,0.0,37,0.00,,---,0.00,VWS V13.01,2013-07-09 10:46:00,
2013-07-09 06:51:00,68.4,41.8,29.71,WSW,253,0.0,0.0,38,0.00,,---,0.00,VWS V13.01,2013-07-09 10:51:00,
2013-07-09 06:56:00,68.7,42.1,29.71,WSW,247,0.0,0.0,38,0.00,,---,0.00,VWS V13.01,2013-07-09 10:56:00,
2013-07-09 07:01:00,68.7,42.1,29.71,WSW,250,0.0,0.0,38,0.00,,---,0.00,VWS V13.01,2013-07-09 11:01:00,
2013-07-09 07:06:00,68.9,42.3,29.71,WSW,250,0.0,0.0,38,0.00,,---,0.00,VWS V13.01,2013-07-09 11:06:00,
2013-07-09 07:11:00,69.1,42.4,29.71,WSW,250,0.0,0.0,38,0.00,,---,0.00,VWS V13.01,2013-07-09 11:11:00,
2013-07-09 07:16:00,69.3,42.6,29.71,WSW,250,0.0,0.0,38,0.00,,---,0.00,VWS V13.01,2013-07-09 11:16:00,
2013-07-09 07:22:00,69.4,42.8,29.71,WSW,250,0.0,0.0,38,0.00,,---,0.00,VWS V13.01,2013-07-09 11:22:00,
2013-07-09 07:27:00,69.6,42.9,29.71,WSW,250,0.0,0.0,38,0.00,,---,0.00,VWS V13.01,2013-07-09 11:27:00,
2013-07-09 07:32:00,69.8,43.1,29.71,WSW,250,0.0,0.0,38,0.00,,---,0.00,VWS V13.01,2013-07-09 11:32:00,
2013-07-09 07:37:00,70.0,43.2,29.71,WSW,250,0.0,0.0,38,0.00,,---,0.00,VWS V13.01,2013-07-09 11:37:00,
2013-07-09 07:42:00,70.2,43.4,29.71,WSW,250,0.0,0.0,38,0.00,,---,0.00,VWS V13.01,2013-07-09 11:42:00,
2013-07-09 07:47:00,70.5,43.7,29.71,WSW,250,0.0,0.0,38,0.00,,---,0.00,VWS V13.01,2013-07-09 11:47:00,
2013-07-09 07:52:00,70.7,43.9,29.71,WSW,250,0.0,0.0,38,0.00,,---,0.00,VWS V13.01,2013-07-09 11:52:00,
2013-07-09 07:57:00,70.9,44.0,29.71,WSW,250,0.0,0.0,38,0.00,,---,0.00,VWS V13.01,2013-07-09 11:57:00,
2013-07-09 08:02:00,71.1,44.2,29.74,WSW,250,0.0,0.0,38,0.00,,---,0.00,VWS V13.01,2013-07-09 12:02:00,
2013-07-09 08:07:00,71.2,44.4,29.74,WSW,250,0.0,0.0,38,0.00,,---,0.00,VWS V13.01,2013-07-09 12:07:00,
2013-07-09 08:13:00,71.4,44.5,29.74,WSW,250,0.0,0.0,38,0.00,,---,0.00,VWS V13.01,2013-07-09 12:13:00,
2013-07-09 08:18:00,72.0,44.3,29.71,WSW,250,0.0,0.0,37,0.00,,---,0.00,VWS V13.01,2013-07-09 12:18:00,
2013-07-09 08:23:00,72.9,45.1,29.71,WSW,250,0.0,0.0,37,0.00,,---,0.00,VWS V13.01,2013-07-09 12:23:00,
2013-07-09 08:28:00,73.6,44.3,29.71,WSW,250,0.0,0.0,35,0.00,,---,0.00,VWS V13.01,2013-07-09 12:28:00,
2013-07-09 08:33:00,75.0,44.0,29.71,WSW,250,0.0,0.0,33,0.00,,---,0.00,VWS V13.01,2013-07-09 12:33:00,
2013-07-09 08:38:00,76.6,43.8,29.71,WSW,250,0.0,0.0,31,0.00,,---,0.00,VWS V13.01,2013-07-09 12:38:00,
2013-07-09 08:43:00,77.0,42.3,29.71,WSW,249,0.0,0.0,29,0.00,,---,0.00,VWS V13.01,2013-07-09 12:43:00,
2013-07-09 08:48:00,77.2,41.6,29.71,WSW,249,0.0,0.0,28,0.00,,---,0.00,VWS V13.01,2013-07-09 12:48:00,
2013-07-09 08:53:00,77.2,39.7,29.71,NNE,12,0.0,0.0,26,0.00,,---,0.00,VWS V13.01,2013-07-09 12:53:00,
2013-07-09 08:59:00,77.4,38.8,29.71,NNE,12,0.0,0.0,25,0.00,,---,0.00,VWS V13.01,2013-07-09 12:59:00,
2013-07-09 09:04:00,77.7,38.1,29.71,NNE,12,0.0,0.0,24,0.00,,---,0.00,VWS V13.01,2013-07-09 13:04:00,
2013-07-09 09:09:00,77.9,40.3,29.71,NNE,12,0.0,0.0,26,0.00,,---,0.00,VWS V13.01,2013-07-09 13:09:00,
2013-07-09 09:14:00,78.1,40.4,29.71,North,7,0.0,0.0,26,0.00,,---,0.00,VWS V13.01,2013-07-09 13:14:00,
2013-07-09 09:19:00,78.4,37.6,29.71,North,7,0.0,0.0,23,0.00,,---,0.00,VWS V13.01,2013-07-09 13:19:00,
2013-07-09 09:24:00,78.8,36.8,29.71,North,7,0.0,0.0,22,0.00,,---,0.00,VWS V13.01,2013-07-09 13:24:00,
2013-07-09 09:29:00,79.2,37.1,29.71,NNW,342,0.0,0.0,22,0.00,,---,0.00,VWS V13.01,2013-07-09 13:29:00,
2013-07-09 09:34:00,79.9,35.3,29.71,North,349,0.0,0.0,20,0.00,,---,0.00,VWS V13.01,2013-07-09 13:34:00,
2013-07-09 09:39:00,82.2,37.2,29.71,North,349,0.0,0.0,20,0.00,,---,0.00,VWS V13.01,2013-07-09 13:39:00,
2013-07-09 09:45:00,81.9,36.9,29.71,NNW,329,0.0,0.0,20,0.00,,---,0.00,VWS V13.01,2013-07-09 13:45:00,
2013-07-09 09:50:00,81.1,36.3,29.71,NW,319,0.0,0.0,20,0.00,,---,0.00,VWS V13.01,2013-07-09 13:50:00,
2013-07-09 09:55:00,81.0,34.9,29.71,WNW,288,0.0,0.0,19,0.00,,---,0.00,VWS V13.01,2013-07-09 13:55:00,
2013-07-09 10:00:00,81.0,36.2,29.71,WNW,288,0.0,0.0,20,0.00,,---,0.00,VWS V13.01,2013-07-09 14:00:00,
2013-07-09 10:05:00,80.1,31.4,29.71,WNW,288,0.0,0.0,17,0.00,,---,0.00,VWS V13.01,2013-07-09 14:05:00,
2013-07-09 10:10:00,79.7,35.1,29.71,WNW,288,0.0,0.0,20,0.00,,---,0.00,VWS V13.01,2013-07-09 14:10:00,
2013-07-09 10:15:00,79.5,35.0,29.71,WNW,288,0.0,0.0,20,0.00,,---,0.00,VWS V13.01,2013-07-09 14:15:00,
2013-07-09 10:20:00,79.3,34.8,29.71,WSW,241,0.0,0.0,20,0.00,,---,0.00,VWS V13.01,2013-07-09 14:20:00,
2013-07-09 10:25:00,79.3,34.8,29.71,WSW,248,0.0,0.0,20,0.00,,---,0.00,VWS V13.01,2013-07-09 14:25:00,
2013-07-09 10:31:00,79.2,34.7,29.71,West,278,0.0,0.0,20,0.00,,---,0.00,VWS V13.01,2013-07-09 14:31:00,
2013-07-09 10:36:00,78.6,35.5,29.71,West,278,0.0,0.0,21,0.00,,---,0.00,VWS V13.01,2013-07-09 14:36:00,
2013-07-09 10:41:00,78.6,35.5,29.71,West,264,0.0,0.0,21,0.00,,---,0.00,VWS V13.01,2013-07-09 14:41:00,
2013-07-09 10:46:00,78.8,34.4,29.71,WSW,257,0.0,0.0,20,0.00,,---,0.00,VWS V13.01,2013-07-09 14:46:00,
2013-07-09 10:51:00,79.2,34.7,29.71,South,171,0.0,0.0,20,0.00,,---,0.00,VWS V13.01,2013-07-09 14:51:00,
2013-07-09 10:56:00,79.3,34.8,29.71,South,171,0.0,0.0,20,0.00,,---,0.00,VWS V13.01,2013-07-09 14:56:00,
2013-07-09 11:01:00,79.3,34.8,29.71,WNW,287,0.0,0.0,20,0.00,,---,0.00,VWS V13.01,2013-07-09 15:01:00,
2013-07-09 11:06:00,79.5,30.9,29.71,WNW,286,0.0,0.0,17,0.00,,---,0.00,VWS V13.01,2013-07-09 15:06:00,
2013-07-09 11:12:00,80.1,35.4,29.71,NNW,346,0.0,0.0,20,0.00,,---,0.00,VWS V13.01,2013-07-09 15:12:00,
2013-07-09 11:17:00,80.4,35.7,29.71,West,261,0.0,0.0,20,0.00,,---,0.00,VWS V13.01,2013-07-09 15:17:00,
2013-07-09 11:22:00,80.6,34.6,29.71,West,267,0.0,0.0,19,0.00,,---,0.00,VWS V13.01,2013-07-09 15:22:00,
2013-07-09 11:27:00,80.4,35.7,29.71,West,267,0.0,0.0,20,0.00,,---,0.00,VWS V13.01,2013-07-09 15:27:00,
2013-07-09 11:32:00,80.4,35.7,29.71,West,273,0.0,0.0,20,0.00,,---,0.00,VWS V13.01,2013-07-09 15:32:00,
2013-07-09 11:37:00,81.3,32.4,29.71,NNW,331,0.0,0.0,17,0.00,,---,0.00,VWS V13.01,2013-07-09 15:37:00,
2013-07-09 11:42:00,81.3,32.4,29.71,WNW,296,0.0,0.0,17,0.00,,---,0.00,VWS V13.01,2013-07-09 15:42:00,
2013-07-09 11:47:00,81.5,32.5,29.71,NNW,337,0.0,0.0,17,0.00,,---,0.00,VWS V13.01,2013-07-09 15:47:00,
2013-07-09 11:52:00,81.7,32.7,29.71,NNE,12,0.0,0.0,17,0.00,,---,0.00,VWS V13.01,2013-07-09 15:52:00,
2013-07-09 11:58:00,81.9,28.0,29.71,WNW,295,0.0,0.0,14,0.00,,---,0.00,VWS V13.01,2013-07-09 15:58:00,
2013-07-09 12:03:00,82.2,33.1,29.71,NNW,338,0.0,0.0,17,0.00,,---,0.00,VWS V13.01,2013-07-09 16:03:00,
2013-07-09 12:08:00,82.2,28.3,29.71,WSW,239,0.0,0.0,14,0.00,,---,0.00,VWS V13.01,2013-07-09 16:08:00,
2013-07-09 12:13:00,81.9,32.8,29.71,WSW,239,0.0,0.0,17,0.00,,---,0.00,VWS V13.01,2013-07-09 16:13:00,
2013-07-09 12:18:00,81.9,32.8,29.71,WSW,239,0.0,0.0,17,0.00,,---,0.00,VWS V13.01,2013-07-09 16:18:00,
2013-07-09 12:23:00,81.7,27.9,29.71,SSE,147,0.0,0.0,14,0.00,,---,0.00,VWS V13.01,2013-07-09 16:23:00,
2013-07-09 12:28:00,81.7,32.7,29.71,SSE,147,0.0,0.0,17,0.00,,---,0.00,VWS V13.01,2013-07-09 16:28:00,
2013-07-09 12:33:00,81.9,32.8,29.71,SSE,147,0.0,0.0,17,0.00,,---,0.00,VWS V13.01,2013-07-09 16:33:00,
2013-07-09 12:38:00,82.4,31.8,29.71,WNW,292,0.0,0.0,16,0.00,,---,0.00,VWS V13.01,2013-07-09 16:38:00,
2013-07-09 12:43:00,82.9,32.2,29.71,NE,52,0.0,0.0,16,0.00,,---,0.00,VWS V13.01,2013-07-09 16:43:00,
2013-07-09 12:49:00,82.8,32.0,29.71,NE,52,0.0,0.0,16,0.00,,---,0.00,VWS V13.01,2013-07-09 16:49:00,
2013-07-09 12:54:00,82.9,32.2,29.71,WNW,302,0.0,0.0,16,0.00,,---,0.00,VWS V13.01,2013-07-09 16:54:00,
2013-07-09 12:59:00,83.1,32.3,29.71,NNW,340,0.0,0.0,16,0.00,,---,0.00,VWS V13.01,2013-07-09 16:59:00,
2013-07-09 13:04:00,82.9,28.9,29.71,WNW,294,0.0,0.0,14,0.00,,---,0.00,VWS V13.01,2013-07-09 17:04:00,
2013-07-09 13:09:00,82.8,28.8,29.71,West,268,0.0,0.0,14,0.00,,---,0.00,VWS V13.01,2013-07-09 17:09:00,
2013-07-09 13:14:00,83.1,32.3,29.68,West,268,0.0,0.0,16,0.00,,---,0.00,VWS V13.01,2013-07-09 17:14:00,
2013-07-09 13:19:00,83.3,29.2,29.68,NNW,338,0.0,0.0,14,0.00,,---,0.00,VWS V13.01,2013-07-09 17:19:00,
2013-07-09 13:24:00,83.7,32.8,29.68,SW,231,0.0,0.0,16,0.00,,---,0.00,VWS V13.01,2013-07-09 17:24:00,
2013-07-09 13:29:00,83.8,29.6,29.68,SSE,159,0.0,0.0,14,0.00,,---,0.00,VWS V13.01,2013-07-09 17:29:00,
2013-07-09 13:35:00,84.2,28.1,29.68,WSW,251,0.0,0.0,13,0.00,,---,0.00,VWS V13.01,2013-07-09 17:35:00,
2013-07-09 13:40:00,84.2,28.1,29.68,WSW,256,0.0,0.0,13,0.00,,---,0.00,VWS V13.01,2013-07-09 17:40:00,
2013-07-09 13:45:00,84.4,28.2,29.68,NW,313,0.0,0.0,13,0.00,,---,0.00,VWS V13.01,2013-07-09 17:45:00,
2013-07-09 13:50:00,84.6,28.4,29.68,WSW,258,0.0,0.0,13,0.00,,---,0.00,VWS V13.01,2013-07-09 17:50:00,
2013-07-09 13:55:00,84.4,28.2,29.68,WNW,298,0.0,0.0,13,0.00,,---,0.00,VWS V13.01,2013-07-09 17:55:00,
2013-07-09 14:00:00,84.2,28.1,29.68,WNW,298,0.0,0.0,13,0.00,,---,0.00,VWS V13.01,2013-07-09 18:00:00,
2013-07-09 14:05:00,84.2,28.1,29.68,North,357,0.0,0.0,13,0.00,,---,0.00,VWS V13.01,2013-07-09 18:05:00,
2013-07-09 14:10:00,84.7,28.5,29.68,NW,321,0.0,0.0,13,0.00,,---,0.00,VWS V13.01,2013-07-09 18:10:00,
2013-07-09 14:15:00,85.3,28.9,29.68,NNE,26,0.0,0.0,13,0.00,,---,0.00,VWS V13.01,2013-07-09 18:15:00,
2013-07-09 14:20:00,85.5,29.1,29.68,SSW,208,0.0,0.0,13,0.00,,---,0.00,VWS V13.01,2013-07-09 18:20:00,
2013-07-09 14:26:00,84.2,28.1,29.68,WSW,244,0.0,0.0,13,0.00,,---,0.00,VWS V13.01,2013-07-09 18:26:00,
2013-07-09 14:31:00,83.3,29.2,29.68,WSW,244,0.0,0.0,14,0.00,,---,0.00,VWS V13.01,2013-07-09 18:31:00,
2013-07-09 14:36:00,82.9,28.9,29.68,WNW,290,0.0,0.0,14,0.00,,---,0.00,VWS V13.01,2013-07-09 18:36:00,
2013-07-09 14:41:00,82.6,28.6,29.68,WNW,292,0.0,0.0,14,0.00,,---,0.00,VWS V13.01,2013-07-09 18:41:00,
2013-07-09 14:46:00,82.0,33.0,29.68,West,280,0.0,0.0,17,0.00,,---,0.00,VWS V13.01,2013-07-09 18:46:00,
2013-07-09 14:51:00,81.9,32.8,29.68,NW,307,0.0,0.0,17,0.00,,---,0.00,VWS V13.01,2013-07-09 18:51:00,
2013-07-09 14:56:00,81.9,32.8,29.68,NW,308,0.0,0.0,17,0.00,,---,0.00,VWS V13.01,2013-07-09 18:56:00,
2013-07-09 15:01:00,81.5,35.3,29.68,NW,308,0.0,0.0,19,0.00,,---,0.00,VWS V13.01,2013-07-09 19:01:00,
2013-07-09 15:07:00,81.9,32.8,29.68,NNW,333,0.0,0.0,17,0.00,,---,0.00,VWS V13.01,2013-07-09 19:07:00,
2013-07-09 15:12:00,82.4,31.8,29.68,West,275,0.0,0.0,16,0.00,,---,0.00,VWS V13.01,2013-07-09 19:12:00,
2013-07-09 15:17:00,82.8,28.8,29.68,NE,34,0.0,0.0,14,0.00,,---,0.00,VWS V13.01,2013-07-09 19:17:00,
2013-07-09 15:22:00,82.9,28.9,29.68,SSE,156,0.0,0.0,14,0.00,,---,0.00,VWS V13.01,2013-07-09 19:22:00,
2013-07-09 15:27:00,83.3,29.2,29.68,East,98,0.0,0.0,14,0.00,,---,0.00,VWS V13.01,2013-07-09 19:27:00,
2013-07-09 15:32:00,83.7,29.5,29.68,West,262,0.0,0.0,14,0.00,,---,0.00,VWS V13.01,2013-07-09 19:32:00,
2013-07-09 15:37:00,83.7,29.5,29.68,West,275,0.0,0.0,14,0.00,,---,0.00,VWS V13.01,2013-07-09 19:37:00,
2013-07-09 15:42:00,83.7,29.5,29.68,NNE,18,0.0,0.0,14,0.00,,---,0.00,VWS V13.01,2013-07-09 19:42:00,
2013-07-09 15:47:00,83.8,29.6,29.68,NE,49,0.0,0.0,14,0.00,,---,0.00,VWS V13.01,2013-07-09 19:47:00,
2013-07-09 15:53:00,83.7,29.5,29.68,NE,37,0.0,0.0,14,0.00,,---,0.00,VWS V13.01,2013-07-09 19:53:00,
2013-07-09 15:58:00,83.1,29.0,29.68,SW,232,0.0,0.0,14,0.00,,---,0.00,VWS V13.01,2013-07-09 19:58:00,
2013-07-09 16:03:00,83.1,29.0,29.68,West,264,0.0,0.0,14,0.00,,---,0.00,VWS V13.01,2013-07-09 20:03:00,
2013-07-09 16:08:00,83.3,29.2,29.68,North,3,0.0,0.0,14,0.00,,---,0.00,VWS V13.01,2013-07-09 20:08:00,
2013-07-09 16:13:00,83.5,29.3,29.68,SW,216,0.0,0.0,14,0.00,,---,0.00,VWS V13.01,2013-07-09 20:13:00,
2013-07-09 16:18:00,83.5,32.6,29.68,NNE,20,0.0,0.0,16,0.00,,---,0.00,VWS V13.01,2013-07-09 20:18:00,
2013-07-09 16:24:00,83.1,29.0,29.68,SE,144,0.0,0.0,14,0.00,,---,0.00,VWS V13.01,2013-07-09 20:24:00,
2013-07-09 16:29:00,82.6,28.6,29.68,North,10,0.0,0.0,14,0.00,,---,0.00,VWS V13.01,2013-07-09 20:29:00,
2013-07-09 16:34:00,82.8,32.0,29.68,SSE,159,0.0,0.0,16,0.00,,---,0.00,VWS V13.01,2013-07-09 20:34:00,
2013-07-09 16:39:00,82.9,28.9,29.68,NNW,341,0.0,0.0,14,0.00,,---,0.00,VWS V13.01,2013-07-09 20:39:00,
2013-07-09 16:44:00,82.9,28.9,29.68,NNW,329,0.0,0.0,14,0.00,,---,0.00,VWS V13.01,2013-07-09 20:44:00,
2013-07-09 16:49:00,82.6,28.6,29.68,West,262,0.0,0.0,14,0.00,,---,0.00,VWS V13.01,2013-07-09 20:49:00,
2013-07-09 16:54:00,82.2,33.1,29.68,NW,304,0.0,0.0,17,0.00,,---,0.00,VWS V13.01,2013-07-09 20:54:00,
2013-07-09 16:59:00,82.2,33.1,29.68,NW,304,0.0,0.0,17,0.00,,---,0.00,VWS V13.01,2013-07-09 20:59:00,
2013-07-09 17:04:00,81.3,32.4,29.68,ENE,72,0.0,0.0,17,0.00,,---,0.00,VWS V13.01,2013-07-09 21:04:00,
2013-07-09 17:10:00,81.0,34.9,29.68,ENE,72,0.0,0.0,19,0.00,,---,0.00,VWS V13.01,2013-07-09 21:10:00,
2013-07-09 17:15:00,81.0,32.1,29.68,NNE,27,0.0,0.0,17,0.00,,---,0.00,VWS V13.01,2013-07-09 21:15:00,
2013-07-09 17:20:00,81.0,32.1,29.68,NNE,19,0.0,0.0,17,0.00,,---,0.00,VWS V13.01,2013-07-09 21:20:00,
2013-07-09 17:25:00,80.4,35.7,29.68,NNE,19,0.0,0.0,20,0.00,,---,0.00,VWS V13.01,2013-07-09 21:25:00,
2013-07-09 17:30:00,79.9,35.3,29.68,NNE,19,0.0,0.0,20,0.00,,---,0.00,VWS V13.01,2013-07-09 21:30:00,
2013-07-09 17:35:00,79.9,35.3,29.68,North,10,0.0,0.0,20,0.00,,---,0.00,VWS V13.01,2013-07-09 21:35:00,
2013-07-09 17:40:00,79.7,35.1,29.68,North,10,0.0,0.0,20,0.00,,---,0.00,VWS V13.01,2013-07-09 21:40:00,
2013-07-09 17:45:00,79.3,34.8,29.65,North,10,0.0,0.0,20,0.00,,---,0.00,VWS V13.01,2013-07-09 21:45:00,
2013-07-09 17:50:00,79.0,35.8,29.65,North,10,0.0,0.0,21,0.00,,---,0.00,VWS V13.01,2013-07-09 21:50:00,
2013-07-09 17:56:00,79.0,35.8,29.65,North,357,0.0,0.0,21,0.00,,---,0.00,VWS V13.01,2013-07-09 21:56:00,
2013-07-09 18:01:00,79.0,35.8,29.65,North,357,0.0,0.0,21,0.00,,---,0.00,VWS V13.01,2013-07-09 22:01:00,
2013-07-09 18:06:00,78.8,35.6,29.65,North,357,0.0,0.0,21,0.00,,---,0.00,VWS V13.01,2013-07-09 22:06:00,
2013-07-09 18:11:00,78.6,35.5,29.65,North,357,0.0,0.0,21,0.00,,---,0.00,VWS V13.01,2013-07-09 22:11:00,
2013-07-09 18:16:00,78.4,35.3,29.65,North,357,0.0,0.0,21,0.00,,---,0.00,VWS V13.01,2013-07-09 22:16:00,
2013-07-09 18:21:00,78.3,35.2,29.65,North,357,0.0,0.0,21,0.00,,---,0.00,VWS V13.01,2013-07-09 22:21:00,
2013-07-09 18:26:00,78.3,35.2,29.65,North,357,0.0,0.0,21,0.00,,---,0.00,VWS V13.01,2013-07-09 22:26:00,
2013-07-09 18:31:00,78.1,35.0,29.65,North,357,0.0,0.0,21,0.00,,---,0.00,VWS V13.01,2013-07-09 22:31:00,
2013-07-09 18:37:00,77.7,34.7,29.65,North,357,0.0,0.0,21,0.00,,---,0.00,VWS V13.01,2013-07-09 22:37:00,
2013-07-09 18:42:00,77.5,34.6,29.65,North,357,0.0,0.0,21,0.00,,---,0.00,VWS V13.01,2013-07-09 22:42:00,
2013-07-09 18:47:00,77.5,35.7,29.65,North,357,0.0,0.0,22,0.00,,---,0.00,VWS V13.01,2013-07-09 22:47:00,
2013-07-09 18:52:00,77.4,35.6,29.65,North,357,0.0,0.0,22,0.00,,---,0.00,VWS V13.01,2013-07-09 22:52:00,
2013-07-09 18:57:00,77.2,36.5,29.65,North,357,0.0,0.0,23,0.00,,---,0.00,VWS V13.01,2013-07-09 22:57:00,
2013-07-09 19:02:00,77.0,36.4,29.65,North,357,0.0,0.0,23,0.00,,---,0.00,VWS V13.01,2013-07-09 23:02:00,
2013-07-09 19:07:00,77.0,37.5,29.65,North,357,0.0,0.0,24,0.00,,---,0.00,VWS V13.01,2013-07-09 23:07:00,
2013-07-09 19:12:00,77.0,37.5,29.65,North,1,0.0,0.0,24,0.00,,---,0.00,VWS V13.01,2013-07-09 23:12:00,
2013-07-09 19:17:00,77.2,37.6,29.65,North,1,0.0,0.0,24,0.00,,---,0.00,VWS V13.01,2013-07-09 23:17:00,
2013-07-09 19:22:00,77.2,37.6,29.65,North,1,0.0,0.0,24,0.00,,---,0.00,VWS V13.01,2013-07-09 23:22:00,
2013-07-09 19:28:00,77.2,38.7,29.65,North,1,0.0,0.0,25,0.00,,---,0.00,VWS V13.01,2013-07-09 23:28:00,
2013-07-09 19:33:00,77.2,38.7,29.65,North,1,0.0,0.0,25,0.00,,---,0.00,VWS V13.01,2013-07-09 23:33:00,
2013-07-09 19:38:00,77.0,38.5,29.65,North,1,0.0,0.0,25,0.00,,---,0.00,VWS V13.01,2013-07-09 23:38:00,
2013-07-09 19:43:00,77.0,38.5,29.65,North,1,0.0,0.0,25,0.00,,---,0.00,VWS V13.01,2013-07-09 23:43:00,
2013-07-09 19:48:00,77.0,38.5,29.65,North,1,0.0,0.0,25,0.00,,---,0.00,VWS V13.01,2013-07-09 23:48:00,
2013-07-09 19:53:00,76.8,39.4,29.65,NNW,348,0.0,0.0,26,0.00,,---,0.00,VWS V13.01,2013-07-09 23:53:00,
2013-07-09 19:58:00,76.6,38.2,29.65,North,353,0.0,0.0,25,0.00,,---,0.00,VWS V13.01,2013-07-09 23:58:00,
2013-07-09 20:03:00,76.5,38.1,29.65,North,353,0.0,0.0,25,0.00,,---,0.00,VWS V13.01,2013-07-10 00:03:00,
2013-07-09 20:08:00,76.3,38.9,29.65,North,353,0.0,0.0,26,0.00,,---,0.00,VWS V13.01,2013-07-10 00:08:00,
2013-07-09 20:14:00,76.1,38.8,29.65,North,353,0.0,0.0,26,0.00,,---,0.00,VWS V13.01,2013-07-10 00:14:00,
2013-07-09 20:19:00,75.9,38.6,29.65,North,353,0.0,0.0,26,0.00,,---,0.00,VWS V13.01,2013-07-10 00:19:00,
2013-07-09 20:24:00,75.7,38.5,29.65,North,353,0.0,0.0,26,0.00,,---,0.00,VWS V13.01,2013-07-10 00:24:00,
2013-07-09 20:29:00,75.6,39.3,29.65,North,353,0.0,0.0,27,0.00,,---,0.00,VWS V13.01,2013-07-10 00:29:00,
2013-07-09 20:34:00,75.4,39.1,29.65,North,353,0.0,0.0,27,0.00,,---,0.00,VWS V13.01,2013-07-10 00:34:00,
2013-07-09 20:39:00,75.4,39.1,29.65,North,353,0.0,0.0,27,0.00,,---,0.00,VWS V13.01,2013-07-10 00:39:00,
2013-07-09 20:44:00,75.2,39.9,29.65,North,353,0.0,0.0,28,0.00,,---,0.00,VWS V13.01,2013-07-10 00:44:00,
2013-07-09 20:49:00,75.0,40.6,29.65,North,353,0.0,0.0,29,0.00,,---,0.00,VWS V13.01,2013-07-10 00:49:00,
2013-07-09 20:55:00,74.8,40.5,29.65,North,353,0.0,0.0,29,0.00,,---,0.00,VWS V13.01,2013-07-10 00:55:00,
2013-07-09 21:00:00,74.8,40.5,29.65,North,353,0.0,0.0,29,0.00,,---,0.00,VWS V13.01,2013-07-10 01:00:00,
2013-07-09 21:05:00,74.7,41.2,29.65,North,353,0.0,0.0,30,0.00,,---,0.00,VWS V13.01,2013-07-10 01:05:00,
2013-07-09 21:10:00,74.5,41.0,29.65,North,353,0.0,0.0,30,0.00,,---,0.00,VWS V13.01,2013-07-10 01:10:00,
2013-07-09 21:15:00,74.3,40.9,29.68,North,353,0.0,0.0,30,0.00,,---,0.00,VWS V13.01,2013-07-10 01:15:00,
2013-07-09 21:20:00,74.3,41.7,29.68,North,353,0.0,0.0,31,0.00,,---,0.00,VWS V13.01,2013-07-10 01:20:00,
2013-07-09 21:25:00,74.1,41.6,29.68,North,353,0.0,0.0,31,0.00,,---,0.00,VWS V13.01,2013-07-10 01:25:00,
2013-07-09 21:30:00,73.9,41.4,29.68,North,353,0.0,0.0,31,0.00,,---,0.00,VWS V13.01,2013-07-10 01:30:00,
2013-07-09 21:35:00,73.8,41.3,29.68,North,353,0.0,0.0,31,0.00,,---,0.00,VWS V13.01,2013-07-10 01:35:00,
2013-07-09 21:41:00,73.8,41.3,29.68,North,353,0.0,0.0,31,0.00,,---,0.00,VWS V13.01,2013-07-10 01:41:00,
2013-07-09 21:46:00,73.6,41.1,29.68,North,353,0.0,0.0,31,0.00,,---,0.00,VWS V13.01,2013-07-10 01:46:00,
2013-07-09 21:51:00,73.6,41.1,29.68,North,353,0.0,0.0,31,0.00,,---,0.00,VWS V13.01,2013-07-10 01:51:00,
2013-07-09 21:56:00,73.6,41.9,29.68,North,353,0.0,0.0,32,0.00,,---,0.00,VWS V13.01,2013-07-10 01:56:00,
2013-07-09 22:01:00,73.4,41.8,29.68,North,353,0.0,0.0,32,0.00,,---,0.00,VWS V13.01,2013-07-10 02:01:00,
2013-07-09 22:06:00,73.4,41.8,29.68,North,353,0.0,0.0,32,0.00,,---,0.00,VWS V13.01,2013-07-10 02:06:00,
2013-07-09 22:11:00,73.4,41.8,29.68,North,353,0.0,0.0,32,0.00,,---,0.00,VWS V13.01,2013-07-10 02:11:00,
2013-07-09 22:16:00,73.4,41.8,29.68,North,353,0.0,0.0,32,0.00,,---,0.00,VWS V13.01,2013-07-10 02:16:00,
2013-07-09 22:21:00,73.4,41.8,29.68,North,353,0.0,0.0,32,0.00,,---,0.00,VWS V13.01,2013-07-10 02:21:00,
2013-07-09 22:27:00,73.4,41.8,29.68,North,353,0.0,0.0,32,0.00,,---,0.00,VWS V13.01,2013-07-10 02:27:00,
2013-07-09 22:32:00,73.4,41.8,29.68,North,353,0.0,0.0,32,0.00,,---,0.00,VWS V13.01,2013-07-10 02:32:00,
2013-07-09 22:37:00,73.2,42.4,29.68,North,353,0.0,0.0,33,0.00,,---,0.00,VWS V13.01,2013-07-10 02:37:00,
2013-07-09 22:42:00,73.2,42.4,29.68,North,353,0.0,0.0,33,0.00,,---,0.00,VWS V13.01,2013-07-10 02:42:00,
2013-07-09 22:47:00,73.2,42.4,29.68,North,353,0.0,0.0,33,0.00,,---,0.00,VWS V13.01,2013-07-10 02:47:00,
2013-07-09 22:52:00,73.2,42.4,29.68,North,353,0.0,0.0,33,0.00,,---,0.00,VWS V13.01,2013-07-10 02:52:00,
2013-07-09 22:57:00,73.2,42.4,29.68,North,353,0.0,0.0,33,0.00,,---,0.00,VWS V13.01,2013-07-10 02:57:00,
2013-07-09 23:02:00,73.0,42.3,29.68,North,353,0.0,0.0,33,0.00,,---,0.00,VWS V13.01,2013-07-10 03:02:00,
2013-07-09 23:08:00,72.9,42.1,29.68,North,353,0.0,0.0,33,0.00,,---,0.00,VWS V13.01,2013-07-10 03:08:00,
2013-07-09 23:13:00,72.9,42.1,29.68,North,353,0.0,0.0,33,0.00,,---,0.00,VWS V13.01,2013-07-10 03:13:00,
2013-07-09 23:18:00,72.9,42.1,29.68,North,353,0.0,0.0,33,0.00,,---,0.00,VWS V13.01,2013-07-10 03:18:00,
2013-07-09 23:23:00,72.9,42.1,29.68,North,353,0.0,0.0,33,0.00,,---,0.00,VWS V13.01,2013-07-10 03:23:00,
2013-07-09 23:28:00,72.7,42.0,29.68,North,353,0.0,0.0,33,0.00,,---,0.00,VWS V13.01,2013-07-10 03:28:00,
2013-07-09 23:33:00,72.5,41.8,29.68,North,353,0.0,0.0,33,0.00,,---,0.00,VWS V13.01,2013-07-10 03:33:00,
2013-07-09 23:38:00,72.5,41.8,29.68,North,353,0.0,0.0,33,0.00,,---,0.00,VWS V13.01,2013-07-10 03:38:00,
2013-07-09 23:43:00,72.5,41.8,29.68,North,353,0.0,0.0,33,0.00,,---,0.00,VWS V13.01,2013-07-10 03:43:00,
2013-07-09 23:49:00,72.3,41.6,29.68,North,353,0.0,0.0,33,0.00,,---,0.00,VWS V13.01,2013-07-10 03:49:00,
2013-07-09 23:54:00,72.3,41.6,29.68,North,353,0.0,0.0,33,0.00,,---,0.00,VWS V13.01,2013-07-10 03:54:00,
2013-07-09 23:59:00,72.3,41.6,29.68,North,353,0.0,0.0,33,0.00,,---,0.00,VWS V13.01,2013-07-10 03:59:00,